Zurück zum Katalog

FREGAT DEB

AktivUNKNOWN
NORAD 45822·DEBRIS·🇷🇺 Russia

Gestartet Jul 18, 2011 von Baikonur Cosmodrome

Loading…

Nächste Überflüge (nächste 24 Stunden)

TLE

AktuellSource: Space-Track

Epoche: Sep 14, 2026, 06:45 UTC

1 45822U 11037BG  26257.28175379  .00014943  00000-0  42093-2 0  9998
2 45822  51.3313 353.7920 1007725 277.9146  70.8703 12.96603470274282

Verfolge FREGAT DEB in Echtzeit mit AllMySat

Download on the App Store